| time (UTC) | temp F | wind direction | speed MPH | gust MPH | rain 1hr in | rain 24hr in | rain mn in | humidity % | barometer mb |
| 20260906121600 | 68 | 0 | 1.0 | 3.0 | 0.00 | 0.01 | 0.00 | 88 | 1015.7 |
| 20260906121057 | 68 | 0 | 1.0 | 3.0 | 0.00 | 0.01 | 0.00 | 88 | 1015.7 |
| 20260906120558 | 68 | 24 | 0.0 | 4.0 | 0.00 | 0.01 | 0.00 | 88 | 1015.7 |
| 20260906120105 | 68 | 360 | 0.0 | 5.0 | 0.00 | 0.01 | 0.00 | 88 | 1015.6 |
| 20260906115558 | 68 | 360 | 1.0 | 5.0 | 0.00 | 0.21 | 0.00 | 88 | 1015.7 |
| 20260906115056 | 68 | 0 | 0.0 | 5.0 | 0.00 | 0.21 | 0.00 | 88 | 1015.6 |
| 20260906114559 | 68 | 0 | 1.0 | 5.0 | 0.00 | 0.21 | 0.00 | 88 | 1015.4 |
| 20260906114056 | 68 | 69 | 2.0 | 7.0 | 0.00 | 0.21 | 0.00 | 88 | 1015.4 |
| 20260906113556 | 68 | 336 | 2.0 | 7.0 | 0.00 | 0.21 | 0.00 | 89 | 1015.3 |
| 20260906113104 | 68 | 246 | 1.0 | 5.0 | 0.00 | 0.21 | 0.00 | 89 | 1015.2 |
| 20260906112557 | 68 | 31 | 2.0 | 5.0 | 0.00 | 0.21 | 0.00 | 89 | 1015.2 |
| 20260906112057 | 68 | 0 | 1.0 | 6.0 | 0.00 | 0.21 | 0.00 | 89 | 1015.2 |
| 20260906111603 | 68 | 28 | 2.0 | 6.0 | 0.00 | 0.21 | 0.00 | 89 | 1015.0 |
| 20260906111058 | 68 | 294 | 2.0 | 5.0 | 0.00 | 0.21 | 0.00 | 89 | 1015.0 |
| 20260906110557 | 68 | 333 | 1.0 | 5.0 | 0.00 | 0.21 | 0.00 | 90 | 1014.8 |
| 20260906105558 | 69 | 14 | 1.0 | 8.0 | 0.00 | 0.42 | 0.00 | 90 | 1014.7 |
| 20260906105057 | 69 | 11 | 1.0 | 8.0 | 0.00 | 0.42 | 0.00 | 90 | 1014.6 |
| 20260906104558 | 69 | 13 | 2.0 | 4.0 | 0.00 | 0.42 | 0.00 | 91 | 1014.6 |
| 20260906104057 | 69 | 30 | 1.0 | 3.0 | 0.00 | 0.42 | 0.00 | 91 | 1014.5 |
| 20260906103556 | 70 | 355 | 0.0 | 2.0 | 0.00 | 0.42 | 0.00 | 91 | 1014.5 |
| 20260906103111 | 70 | 0 | 0.0 | 3.0 | 0.00 | 0.42 | 0.00 | 91 | 1014.5 |
| 20260906102557 | 70 | 0 | 0.0 | 3.0 | 0.00 | 0.42 | 0.00 | 91 | 1014.2 |
| 20260906102057 | 70 | 85 | 0.0 | 3.0 | 0.00 | 0.42 | 0.00 | 91 | 1014.2 |
| 20260906101603 | 70 | 318 | 1.0 | 3.0 | 0.00 | 0.42 | 0.00 | 91 | 1014.2 |
| 20260906101056 | 70 | 0 | 0.0 | 3.0 | 0.00 | 0.42 | 0.00 | 91 | 1014.1 |
| 20260906100558 | 70 | 18 | 0.0 | 3.0 | 0.00 | 0.42 | 0.00 | 91 | 1014.0 |
| 20260906100111 | 70 | 5 | 1.0 | 4.0 | 0.00 | 0.42 | 0.00 | 92 | 1014.2 |
| 20260906095601 | 70 | 0 | 1.0 | 5.0 | 0.00 | 0.42 | 0.00 | 92 | 1014.2 |
| 20260906095057 | 70 | 0 | 1.0 | 5.0 | 0.00 | 0.42 | 0.00 | 92 | 1014.1 |
| 20260906094621 | 70 | 24 | 1.0 | 4.0 | 0.00 | 0.42 | 0.00 | 92 | 1014.1 |
| 20260906094056 | 70 | 343 | 1.0 | 3.0 | 0.00 | 0.42 | 0.00 | 92 | 1014.0 |
| 20260906093559 | 70 | 360 | 1.0 | 3.0 | 0.00 | 0.42 | 0.00 | 93 | 1014.1 |
| 20260906093059 | 70 | 321 | 1.0 | 3.0 | 0.00 | 0.42 | 0.00 | 93 | 1014.0 |
| 20260906092559 | 70 | 327 | 1.0 | 3.0 | 0.00 | 0.42 | 0.00 | 93 | 1014.1 |
| 20260906092056 | 70 | 5 | 1.0 | 3.0 | 0.00 | 0.42 | 0.00 | 93 | 1014.0 |
| 20260906091604 | 70 | 85 | 0.0 | 3.0 | 0.00 | 0.42 | 0.00 | 93 | 1014.0 |
| 20260906091058 | 70 | 0 | 0.0 | 2.0 | 0.00 | 0.42 | 0.00 | 93 | 1014.0 |
| 20260906090556 | 70 | 0 | 0.0 | 4.0 | 0.00 | 0.42 | 0.00 | 93 | 1014.1 |
| 20260906090115 | 70 | 86 | 0.0 | 4.0 | 0.00 | 0.42 | 0.00 | 93 | 1014.0 |
| 20260906085559 | 70 | 0 | 0.0 | 3.0 | 0.00 | 0.42 | 0.00 | 93 | 1014.0 |
| 20260906085100 | 70 | 0 | 0.0 | 3.0 | 0.00 | 0.42 | 0.00 | 93 | 1013.9 |
| 20260906084605 | 71 | 34 | 1.0 | 3.0 | 0.00 | 0.42 | 0.00 | 93 | 1013.9 |
| 20260906084056 | 71 | 0 | 0.0 | 3.0 | 0.00 | 0.42 | 0.00 | 94 | 1014.0 |
| 20260906083556 | 71 | 327 | 0.0 | 3.0 | 0.00 | 0.42 | 0.00 | 94 | 1014.0 |
| 20260906083105 | 71 | 338 | 1.0 | 4.0 | 0.00 | 0.42 | 0.00 | 94 | 1014.0 |
| 20260906082556 | 71 | 0 | 1.0 | 4.0 | 0.00 | 0.42 | 0.00 | 94 | 1013.9 |
| 20260906082056 | 70 | 0 | 0.0 | 3.0 | 0.00 | 0.42 | 0.00 | 94 | 1013.9 |
| 20260906081603 | 70 | 51 | 0.0 | 3.0 | 0.00 | 0.42 | 0.00 | 94 | 1014.1 |
| 20260906081058 | 70 | 346 | 0.0 | 3.0 | 0.00 | 0.42 | 0.00 | 94 | 1014.2 |
| 20260906080556 | 70 | 344 | 0.0 | 3.0 | 0.00 | 0.42 | 0.00 | 94 | 1014.2 |
| 20260906080104 | 70 | 5 | 0.0 | 3.0 | 0.00 | 0.42 | 0.00 | 94 | 1014.0 |
| 20260906075556 | 70 | 5 | 0.0 | 2.0 | 0.00 | 0.42 | 0.00 | 94 | 1014.0 |
| 20260906075056 | 70 | 0 | 0.0 | 1.0 | 0.00 | 0.42 | 0.00 | 93 | 1013.7 |
| 20260906074600 | 69 | 0 | 0.0 | 0.0 | 0.00 | 0.42 | 0.00 | 93 | 1013.9 |
| 20260906074056 | 69 | 0 | 0.0 | 1.0 | 0.00 | 0.42 | 0.00 | 93 | 1013.8 |
| 20260906073601 | 70 | 0 | 0.0 | 1.0 | 0.00 | 0.42 | 0.00 | 93 | 1013.8 |
| 20260906073104 | 70 | 0 | 0.0 | 0.0 | 0.00 | 0.42 | 0.00 | 93 | 1013.8 |
| 20260906072557 | 70 | 0 | 0.0 | 2.0 | 0.00 | 0.42 | 0.00 | 93 | 1013.8 |
| 20260906072057 | 70 | 0 | 0.0 | 2.0 | 0.00 | 0.42 | 0.00 | 93 | 1013.8 |
| 20260906071602 | 70 | 5 | 0.0 | 1.0 | 0.00 | 0.42 | 0.00 | 93 | 1013.9 |
| 20260906071056 | 70 | 0 | 0.0 | 0.0 | 0.00 | 0.42 | 0.00 | 93 | 1013.8 |
| 20260906070557 | 70 | 0 | 0.0 | 0.0 | 0.00 | 0.42 | 0.00 | 93 | 1014.0 |
| 20260906070104 | 70 | 0 | 0.0 | 1.0 | 0.00 | 0.42 | 0.00 | 93 | 1014.2 |
| 20260906065600 | 70 | 0 | 0.0 | 2.0 | 0.00 | 0.42 | 0.00 | 93 | 1014.1 |
| 20260906065056 | 70 | 0 | 0.0 | 2.0 | 0.00 | 0.42 | 0.00 | 93 | 1014.1 |
| 20260906064611 | 70 | 5 | 0.0 | 2.0 | 0.00 | 0.42 | 0.00 | 93 | 1014.1 |
| 20260906064057 | 70 | 0 | 0.0 | 1.0 | 0.00 | 0.42 | 0.00 | 93 | 1014.2 |
| 20260906063556 | 70 | 0 | 0.0 | 1.0 | 0.00 | 0.42 | 0.00 | 93 | 1014.2 |
| 20260906063103 | 70 | 0 | 0.0 | 0.0 | 0.00 | 0.42 | 0.00 | 93 | 1014.1 |
| 20260906062556 | 70 | 0 | 0.0 | 0.0 | 0.00 | 0.42 | 0.00 | 93 | 1014.1 |
| 20260906062057 | 70 | 0 | 0.0 | 0.0 | 0.00 | 0.42 | 0.00 | 93 | 1014.0 |
| 20260906061607 | 70 | 0 | 0.0 | 0.0 | 0.00 | 0.42 | 0.00 | 93 | 1014.0 |
| 20260906061056 | 70 | 0 | 0.0 | 0.0 | 0.00 | 0.42 | 0.00 | 93 | 1013.9 |
| 20260906060556 | 70 | 0 | 0.0 | 0.0 | 0.00 | 0.42 | 0.00 | 93 | 1013.9 |
| 20260906060107 | 70 | 0 | 0.0 | 0.0 | 0.00 | 0.42 | 0.00 | 93 | 1013.8 |
| 20260906055556 | 70 | 0 | 0.0 | 0.0 | 0.00 | 0.42 | 0.00 | 93 | 1013.9 |
| 20260906055056 | 71 | 0 | 0.0 | 0.0 | 0.00 | 0.42 | 0.00 | 93 | 1013.9 |
| 20260906054559 | 71 | 0 | 0.0 | 0.0 | 0.00 | 0.42 | 0.00 | 93 | 1013.8 |
| 20260906054058 | 71 | 0 | 0.0 | 0.0 | 0.00 | 0.42 | 0.00 | 93 | 1013.7 |
| 20260906053556 | 71 | 0 | 0.0 | 1.0 | 0.00 | 0.42 | 0.00 | 93 | 1013.8 |
| 20260906053105 | 71 | 0 | 0.0 | 1.0 | 0.00 | 0.42 | 0.00 | 93 | 1013.9 |
| 20260906052559 | 71 | 0 | 0.0 | 2.0 | 0.00 | 0.42 | 0.00 | 93 | 1014.0 |
| 20260906052059 | 71 | 0 | 0.0 | 2.0 | 0.00 | 0.42 | 0.00 | 93 | 1013.9 |
| 20260906051603 | 71 | 5 | 0.0 | 2.0 | 0.00 | 0.42 | 0.00 | 93 | 1013.7 |
| 20260906051058 | 71 | 0 | 0.0 | 3.0 | 0.00 | 0.42 | 0.00 | 93 | 1013.7 |
| 20260906050558 | 71 | 5 | 0.0 | 3.0 | 0.00 | 0.42 | 0.00 | 93 | 1013.7 |
| 20260906050105 | 71 | 5 | 0.0 | 2.0 | 0.00 | 0.42 | 0.00 | 93 | 1013.7 |
| 20260906045558 | 71 | 0 | 0.0 | 2.0 | 0.00 | 0.42 | 0.00 | 93 | 1013.8 |
| 20260906045058 | 71 | 0 | 0.0 | 2.0 | 0.00 | 0.42 | 0.00 | 93 | 1013.7 |
| 20260906044559 | 71 | 0 | 0.0 | 2.0 | 0.00 | 0.42 | 0.00 | 93 | 1013.6 |
| 20260906044058 | 71 | 0 | 0.0 | 2.0 | 0.00 | 0.42 | 0.00 | 92 | 1013.6 |
| 20260906043557 | 71 | 0 | 0.0 | 0.0 | 0.00 | 0.42 | 0.00 | 92 | 1013.7 |
| 20260906043102 | 71 | 0 | 0.0 | 1.0 | 0.00 | 0.42 | 0.00 | 92 | 1013.7 |
| 20260906042557 | 71 | 0 | 0.0 | 2.0 | 0.00 | 0.42 | 0.00 | 92 | 1013.6 |
| 20260906042057 | 71 | 0 | 0.0 | 2.0 | 0.00 | 0.42 | 0.00 | 92 | 1013.6 |
| 20260906041605 | 72 | 0 | 0.0 | 1.0 | 0.00 | 0.42 | 0.00 | 92 | 1013.5 |
| 20260906041058 | 72 | 0 | 0.0 | 1.0 | 0.00 | 0.42 | 0.00 | 92 | 1013.7 |
| 20260906040558 | 72 | 0 | 0.0 | 1.0 | 0.00 | 0.42 | 0.00 | 92 | 1013.7 |
| 20260906040104 | 72 | 0 | 0.0 | 2.0 | 0.00 | 0.42 | 0.00 | 92 | 1013.6 |
| 20260906035558 | 72 | 0 | 0.0 | 2.0 | 0.00 | 0.42 | 0.42 | 92 | 1013.5 |
| 20260906035058 | 72 | 20 | 0.0 | 2.0 | 0.00 | 0.42 | 0.42 | 92 | 1013.5 |
| 20260906034559 | 72 | 0 | 0.0 | 1.0 | 0.00 | 0.42 | 0.42 | 92 | 1013.4 |
| 20260906034057 | 72 | 0 | 0.0 | 2.0 | 0.00 | 0.42 | 0.42 | 92 | 1013.5 |
| 20260906033600 | 72 | 0 | 0.0 | 2.0 | 0.00 | 0.42 | 0.42 | 92 | 1013.5 |
| 20260906033106 | 72 | 28 | 0.0 | 1.0 | 0.00 | 0.42 | 0.42 | 92 | 1013.4 |
| 20260906032558 | 72 | 0 | 0.0 | 1.0 | 0.00 | 0.42 | 0.42 | 92 | 1013.6 |
| 20260906032057 | 72 | 0 | 0.0 | 1.0 | 0.00 | 0.42 | 0.42 | 92 | 1013.7 |
| 20260906031603 | 72 | 28 | 0.0 | 2.0 | 0.00 | 0.42 | 0.42 | 92 | 1013.8 |
| 20260906031058 | 72 | 0 | 0.0 | 3.0 | 0.00 | 0.42 | 0.42 | 92 | 1013.7 |
| 20260906030558 | 72 | 28 | 0.0 | 3.0 | 0.00 | 0.42 | 0.42 | 92 | 1013.9 |
| 20260906030109 | 72 | 0 | 0.0 | 3.0 | 0.00 | 0.42 | 0.42 | 93 | 1013.9 |
| 20260906025558 | 72 | 0 | 0.0 | 3.0 | 0.00 | 0.42 | 0.42 | 92 | 1013.8 |
| 20260906025058 | 72 | 21 | 1.0 | 3.0 | 0.00 | 0.42 | 0.42 | 92 | 1014.0 |
| 20260906024608 | 73 | 292 | 0.0 | 2.0 | 0.00 | 0.42 | 0.42 | 92 | 1014.0 |
| 20260906024057 | 73 | 0 | 0.0 | 2.0 | 0.00 | 0.42 | 0.42 | 92 | 1013.8 |
| 20260906023557 | 73 | 0 | 0.0 | 2.0 | 0.00 | 0.42 | 0.42 | 92 | 1013.9 |
| 20260906023102 | 73 | 0 | 0.0 | 0.0 | 0.00 | 0.42 | 0.42 | 92 | 1013.8 |
| 20260906022557 | 73 | 0 | 0.0 | 0.0 | 0.00 | 0.42 | 0.42 | 92 | 1013.8 |
| 20260906022058 | 73 | 0 | 0.0 | 0.0 | 0.00 | 0.42 | 0.42 | 92 | 1013.6 |
| 20260906021607 | 73 | 0 | 0.0 | 0.0 | 0.00 | 0.42 | 0.42 | 92 | 1013.6 |
| 20260906021059 | 73 | 0 | 0.0 | 0.0 | 0.00 | 0.42 | 0.42 | 92 | 1013.6 |
| 20260906020557 | 73 | 0 | 0.0 | 0.0 | 0.00 | 0.42 | 0.42 | 92 | 1013.7 |
| 20260906020108 | 73 | 0 | 0.0 | 0.0 | 0.00 | 0.42 | 0.42 | 92 | 1013.6 |
| 20260906015557 | 73 | 0 | 0.0 | 0.0 | 0.00 | 0.42 | 0.42 | 92 | 1013.5 |
| 20260906015057 | 73 | 0 | 0.0 | 0.0 | 0.00 | 0.42 | 0.42 | 91 | 1013.5 |
| 20260906014611 | 74 | 0 | 0.0 | 0.0 | 0.00 | 0.42 | 0.42 | 91 | 1013.5 |
| 20260906014059 | 74 | 0 | 0.0 | 0.0 | 0.00 | 0.42 | 0.42 | 91 | 1013.3 |
| 20260906013558 | 74 | 0 | 0.0 | 0.0 | 0.00 | 0.42 | 0.42 | 91 | 1013.4 |
| 20260906013100 | 74 | 0 | 0.0 | 1.0 | 0.00 | 0.42 | 0.42 | 91 | 1013.5 |
| 20260906012557 | 74 | 0 | 0.0 | 2.0 | 0.00 | 0.42 | 0.42 | 91 | 1013.4 |
| 20260906012059 | 74 | 0 | 0.0 | 2.0 | 0.00 | 0.42 | 0.42 | 91 | 1013.3 |
| 20260906011613 | 74 | 0 | 0.0 | 2.0 | 0.00 | 0.42 | 0.42 | 91 | 1013.2 |
| 20260906011058 | 74 | 0 | 0.0 | 2.0 | 0.00 | 0.42 | 0.42 | 90 | 1013.2 |
| 20260906010557 | 74 | 0 | 0.0 | 2.0 | 0.00 | 0.42 | 0.42 | 90 | 1013.0 |
| 20260906010108 | 75 | 0 | 0.0 | 1.0 | 0.00 | 0.42 | 0.42 | 90 | 1012.9 |
| 20260906005557 | 75 | 292 | 0.0 | 1.0 | 0.00 | 0.42 | 0.42 | 90 | 1012.8 |
| 20260906005058 | 75 | 0 | 0.0 | 1.0 | 0.00 | 0.42 | 0.42 | 90 | 1012.7 |
| 20260906004605 | 75 | 0 | 0.0 | 1.0 | 0.00 | 0.42 | 0.42 | 89 | 1012.7 |
| 20260906004058 | 75 | 0 | 0.0 | 1.0 | 0.00 | 0.42 | 0.42 | 89 | 1012.7 |
| 20260906003556 | 75 | 0 | 0.0 | 2.0 | 0.00 | 0.42 | 0.42 | 89 | 1012.8 |
| 20260906003103 | 75 | 0 | 0.0 | 2.0 | 0.00 | 0.42 | 0.42 | 88 | 1012.8 |
| 20260906002557 | 76 | 292 | 0.0 | 0.0 | 0.00 | 0.42 | 0.42 | 88 | 1012.8 |
| 20260906002101 | 76 | 0 | 0.0 | 0.0 | 0.00 | 0.42 | 0.42 | 88 | 1012.8 |
| 20260906001602 | 76 | 0 | 0.0 | 0.0 | 0.00 | 0.42 | 0.42 | 87 | 1012.9 |
| 20260906001101 | 77 | 0 | 0.0 | 0.0 | 0.00 | 0.42 | 0.42 | 86 | 1012.9 |
| 20260906000557 | 77 | 0 | 0.0 | 0.0 | 0.00 | 0.42 | 0.42 | 85 | 1012.9 |
| 20260906000108 | 78 | 0 | 0.0 | 0.0 | 0.00 | 0.42 | 0.42 | 84 | 1012.9 |
| 20260905235557 | 78 | 0 | 0.0 | 2.0 | 0.00 | 0.42 | 0.42 | 83 | 1013.0 |
| 20260905235059 | 78 | 0 | 0.0 | 2.0 | 0.00 | 0.42 | 0.42 | 83 | 1013.0 |
| 20260905234606 | 78 | 0 | 0.0 | 2.0 | 0.00 | 0.42 | 0.42 | 82 | 1013.0 |
| 20260905234058 | 79 | 0 | 0.0 | 1.0 | 0.00 | 0.42 | 0.42 | 82 | 1013.0 |
| 20260905233558 | 79 | 0 | 0.0 | 0.0 | 0.00 | 0.42 | 0.42 | 81 | 1013.0 |
| 20260905233125 | 79 | 0 | 0.0 | 1.0 | 0.00 | 0.42 | 0.42 | 81 | 1012.8 |
| 20260905232558 | 80 | 0 | 0.0 | 1.0 | 0.00 | 0.42 | 0.42 | 80 | 1012.9 |
| 20260905232058 | 80 | 292 | 0.0 | 2.0 | 0.00 | 0.42 | 0.42 | 78 | 1013.0 |
| 20260905231607 | 81 | 0 | 0.0 | 2.0 | 0.00 | 0.42 | 0.42 | 77 | 1012.9 |
| 20260905231058 | 81 | 292 | 0.0 | 2.0 | 0.00 | 0.42 | 0.42 | 76 | 1012.8 |
| 20260905230601 | 82 | 292 | 0.0 | 2.0 | 0.00 | 0.42 | 0.42 | 76 | 1012.9 |
| 20260905230109 | 82 | 0 | 0.0 | 2.0 | 0.00 | 0.42 | 0.42 | 75 | 1012.9 |
| 20260905225556 | 82 | 292 | 1.0 | 2.0 | 0.00 | 0.42 | 0.42 | 74 | 1012.9 |
| 20260905225058 | 83 | 292 | 0.0 | 2.0 | 0.00 | 0.42 | 0.42 | 75 | 1012.8 |
| 20260905224615 | 83 | 292 | 0.0 | 2.0 | 0.00 | 0.42 | 0.42 | 74 | 1012.8 |
| 20260905224057 | 83 | 0 | 1.0 | 3.0 | 0.00 | 0.42 | 0.42 | 70 | 1012.8 |
| 20260905223558 | 84 | 292 | 1.0 | 3.0 | 0.00 | 0.42 | 0.42 | 70 | 1012.8 |
| 20260905223108 | 84 | 292 | 1.0 | 3.0 | 0.00 | 0.42 | 0.42 | 69 | 1012.9 |
| 20260905222601 | 84 | 292 | 1.0 | 3.0 | 0.00 | 0.42 | 0.42 | 69 | 1012.9 |
| 20260905222057 | 84 | 330 | 1.0 | 2.0 | 0.00 | 0.42 | 0.42 | 68 | 1013.0 |
| 20260905221607 | 84 | 360 | 1.0 | 3.0 | 0.00 | 0.42 | 0.42 | 69 | 1013.0 |
| 20260905221058 | 84 | 360 | 0.0 | 3.0 | 0.00 | 0.42 | 0.42 | 69 | 1012.8 |
| 20260905220557 | 84 | 360 | 1.0 | 3.0 | 0.00 | 0.42 | 0.42 | 69 | 1013.0 |
| 20260905220105 | 84 | 0 | 0.0 | 3.0 | 0.00 | 0.42 | 0.42 | 70 | 1013.0 |
| 20260905215558 | 84 | 313 | 1.0 | 3.0 | 0.00 | 0.42 | 0.42 | 71 | 1013.1 |
| 20260905215058 | 83 | 280 | 1.0 | 3.0 | 0.00 | 0.42 | 0.42 | 71 | 1013.0 |
| 20260905214605 | 83 | 0 | 0.0 | 3.0 | 0.00 | 0.42 | 0.42 | 71 | 1012.9 |
| 20260905214057 | 83 | 339 | 1.0 | 4.0 | 0.00 | 0.42 | 0.42 | 72 | 1013.0 |
| 20260905213558 | 84 | 342 | 1.0 | 4.0 | 0.00 | 0.42 | 0.42 | 71 | 1012.9 |
| 20260905213106 | 84 | 318 | 1.0 | 3.0 | 0.00 | 0.42 | 0.42 | 70 | 1012.9 |
| 20260905212557 | 84 | 319 | 0.0 | 3.0 | 0.00 | 0.42 | 0.42 | 70 | 1012.8 |
| 20260905212058 | 84 | 272 | 1.0 | 3.0 | 0.00 | 0.42 | 0.42 | 70 | 1012.8 |
| 20260905211601 | 84 | 33 | 1.0 | 3.0 | 0.00 | 0.42 | 0.42 | 69 | 1012.7 |
| 20260905211057 | 84 | 316 | 1.0 | 4.0 | 0.00 | 0.42 | 0.42 | 69 | 1012.8 |
| 20260905210556 | 84 | 0 | 2.0 | 4.0 | 0.00 | 0.42 | 0.42 | 68 | 1012.7 |
| 20260905205558 | 84 | 348 | 1.0 | 3.0 | 0.00 | 0.42 | 0.42 | 71 | 1012.6 |
| 20260905205058 | 84 | 333 | 1.0 | 4.0 | 0.00 | 0.42 | 0.42 | 71 | 1012.7 |
| 20260905204606 | 83 | 355 | 1.0 | 4.0 | 0.00 | 0.42 | 0.42 | 71 | 1012.6 |
| 20260905204057 | 84 | 348 | 1.0 | 4.0 | 0.00 | 0.42 | 0.42 | 71 | 1012.8 |
| 20260905203559 | 84 | 337 | 1.0 | 5.0 | 0.00 | 0.42 | 0.42 | 70 | 1012.8 |
| 20260905203105 | 85 | 297 | 1.0 | 8.0 | 0.00 | 0.42 | 0.42 | 69 | 1012.9 |
| 20260905202600 | 85 | 311 | 1.0 | 8.0 | 0.00 | 0.42 | 0.42 | 68 | 1012.9 |
| 20260905202100 | 85 | 351 | 1.0 | 4.0 | 0.00 | 0.42 | 0.42 | 68 | 1012.9 |
| 20260905201613 | 85 | 235 | 1.0 | 4.0 | 0.00 | 0.42 | 0.42 | 68 | 1012.9 |
| 20260905201058 | 85 | 286 | 2.0 | 4.0 | 0.00 | 0.42 | 0.42 | 69 | 1013.0 |
| 20260905200557 | 85 | 304 | 1.0 | 4.0 | 0.00 | 0.42 | 0.42 | 68 | 1013.0 |
| 20260905195556 | 85 | 277 | 0.0 | 4.0 | 0.00 | 0.42 | 0.42 | 70 | 1013.1 |
| 20260905195057 | 85 | 0 | 0.0 | 4.0 | 0.00 | 0.42 | 0.42 | 67 | 1013.2 |
| 20260905194607 | 84 | 0 | 1.0 | 3.0 | 0.00 | 0.42 | 0.42 | 70 | 1013.3 |
| 20260905194100 | 83 | 273 | 1.0 | 3.0 | 0.00 | 0.42 | 0.42 | 70 | 1013.3 |
| 20260905193559 | 83 | 273 | 0.0 | 3.0 | 0.00 | 0.42 | 0.42 | 71 | 1013.4 |
| 20260905193104 | 83 | 0 | 1.0 | 3.0 | 0.00 | 0.42 | 0.42 | 70 | 1013.5 |
| 20260905192558 | 83 | 273 | 0.0 | 3.0 | 0.00 | 0.42 | 0.42 | 69 | 1013.5 |
| 20260905192057 | 83 | 273 | 0.0 | 3.0 | 0.00 | 0.42 | 0.42 | 69 | 1013.6 |
| 20260905191610 | 82 | 273 | 0.0 | 4.0 | 0.00 | 0.42 | 0.42 | 70 | 1013.7 |
| 20260905191057 | 83 | 273 | 1.0 | 4.0 | 0.00 | 0.42 | 0.42 | 70 | 1013.7 |
| 20260905190556 | 84 | 270 | 2.0 | 4.0 | 0.00 | 0.42 | 0.42 | 69 | 1013.7 |
| 20260905190132 | 85 | 300 | 2.0 | 4.0 | 0.00 | 0.42 | 0.42 | 70 | 1013.9 |
| 20260905185556 | 84 | 227 | 1.0 | 4.0 | 0.00 | 0.48 | 0.42 | 69 | 1013.9 |
| 20260905185058 | 84 | 266 | 0.0 | 3.0 | 0.00 | 0.48 | 0.42 | 69 | 1013.9 |
| 20260905184623 | 83 | 175 | 0.0 | 3.0 | 0.00 | 0.48 | 0.42 | 70 | 1014.0 |
| 20260905184101 | 84 | 189 | 1.0 | 4.0 | 0.00 | 0.48 | 0.42 | 69 | 1014.1 |
| 20260905183559 | 84 | 0 | 1.0 | 4.0 | 0.00 | 0.48 | 0.42 | 70 | 1014.0 |
| 20260905183109 | 85 | 307 | 1.0 | 4.0 | 0.00 | 0.48 | 0.42 | 68 | 1014.0 |
| 20260905182557 | 85 | 0 | 2.0 | 4.0 | 0.00 | 0.48 | 0.42 | 69 | 1014.0 |
| 20260905182058 | 85 | 157 | 1.0 | 6.0 | 0.00 | 0.48 | 0.42 | 69 | 1014.2 |
| 20260905181603 | 85 | 139 | 1.0 | 6.0 | 0.00 | 0.48 | 0.42 | 69 | 1014.3 |
| 20260905181057 | 84 | 102 | 0.0 | 6.0 | 0.00 | 0.48 | 0.42 | 70 | 1014.2 |
| 20260905180557 | 84 | 197 | 0.0 | 6.0 | 0.00 | 0.48 | 0.42 | 73 | 1014.2 |
| 20260905180108 | 84 | 119 | 2.0 | 6.0 | 0.00 | 0.48 | 0.42 | 69 | 1014.2 |
| 20260905175557 | 83 | 301 | 2.0 | 7.0 | 0.00 | 0.48 | 0.42 | 71 | 1014.3 |
| 20260905175057 | 83 | 138 | 1.0 | 7.0 | 0.00 | 0.48 | 0.42 | 70 | 1014.4 |
| 20260905174608 | 83 | 281 | 2.0 | 6.0 | 0.00 | 0.48 | 0.42 | 70 | 1014.5 |
| 20260905174057 | 83 | 194 | 1.0 | 6.0 | 0.00 | 0.48 | 0.42 | 71 | 1014.5 |
| 20260905173601 | 83 | 148 | 1.0 | 5.0 | 0.00 | 0.48 | 0.42 | 72 | 1014.6 |
| 20260905173109 | 83 | 192 | 2.0 | 5.0 | 0.00 | 0.48 | 0.42 | 71 | 1014.6 |
| 20260905172559 | 82 | 267 | 1.0 | 5.0 | 0.00 | 0.48 | 0.42 | 74 | 1014.6 |
| 20260905172100 | 82 | 142 | 1.0 | 4.0 | 0.00 | 0.48 | 0.42 | 73 | 1014.8 |
| 20260905171603 | 81 | 0 | 1.0 | 5.0 | 0.00 | 0.48 | 0.42 | 74 | 1014.9 |
| 20260905171057 | 81 | 186 | 1.0 | 7.0 | 0.00 | 0.48 | 0.42 | 75 | 1014.8 |
| 20260905170557 | 81 | 196 | 1.0 | 7.0 | 0.00 | 0.48 | 0.42 | 74 | 1015.0 |
| 20260905170114 | 81 | 205 | 1.0 | 7.0 | 0.00 | 0.48 | 0.42 | 75 | 1015.2 |
| 20260905165557 | 81 | 154 | 2.0 | 7.0 | 0.00 | 0.48 | 0.42 | 74 | 1015.1 |
| 20260905165059 | 81 | 0 | 1.0 | 6.0 | 0.00 | 0.48 | 0.42 | 75 | 1015.0 |
| 20260905164605 | 81 | 116 | 1.0 | 5.0 | 0.00 | 0.48 | 0.42 | 76 | 1014.9 |
| 20260905164057 | 80 | 101 | 1.0 | 6.0 | 0.00 | 0.48 | 0.42 | 76 | 1015.0 |
| 20260905163557 | 81 | 137 | 2.0 | 6.0 | 0.00 | 0.48 | 0.42 | 76 | 1015.1 |
| 20260905163105 | 81 | 86 | 1.0 | 4.0 | 0.00 | 0.48 | 0.42 | 76 | 1015.3 |
| 20260905162558 | 81 | 155 | 1.0 | 7.0 | 0.00 | 0.48 | 0.42 | 77 | 1015.2 |
| 20260905162058 | 81 | 107 | 1.0 | 7.0 | 0.00 | 0.48 | 0.42 | 77 | 1015.2 |
| 20260905161604 | 81 | 113 | 1.0 | 4.0 | 0.00 | 0.48 | 0.42 | 77 | 1015.2 |
| 20260905161057 | 80 | 131 | 1.0 | 4.0 | 0.00 | 0.48 | 0.42 | 77 | 1015.5 |
| 20260905160556 | 79 | 105 | 2.0 | 4.0 | 0.00 | 0.48 | 0.42 | 82 | 1015.6 |
| 20260905160100 | 77 | 290 | 1.0 | 4.0 | 0.00 | 0.48 | 0.42 | 83 | 1015.8 |
| 20260905155556 | 77 | 251 | 0.0 | 4.0 | 0.00 | 0.48 | 0.42 | 82 | 1016.0 |
| 20260905155056 | 77 | 218 | 0.0 | 4.0 | 0.00 | 0.48 | 0.42 | 81 | 1015.9 |
| 20260905154609 | 77 | 205 | 1.0 | 4.0 | 0.00 | 0.48 | 0.42 | 81 | 1015.8 |
| 20260905154058 | 78 | 175 | 0.0 | 3.0 | 0.00 | 0.48 | 0.42 | 82 | 1015.8 |
| 20260905153558 | 77 | 0 | 0.0 | 3.0 | 0.00 | 0.48 | 0.42 | 85 | 1015.8 |
| 20260905153102 | 76 | 89 | 0.0 | 3.0 | 0.00 | 0.48 | 0.42 | 85 | 1015.7 |
| 20260905152556 | 75 | 89 | 1.0 | 3.0 | 0.00 | 0.48 | 0.42 | 86 | 1015.7 |
| 20260905152057 | 75 | 11 | 0.0 | 2.0 | 0.00 | 0.48 | 0.42 | 86 | 1015.8 |
| 20260905151603 | 75 | 0 | 0.0 | 2.0 | 0.00 | 0.48 | 0.42 | 86 | 1015.5 |
| 20260905151057 | 75 | 11 | 0.0 | 3.0 | 0.00 | 0.48 | 0.42 | 88 | 1015.6 |
| 20260905150556 | 74 | 0 | 0.0 | 3.0 | 0.00 | 0.48 | 0.42 | 89 | 1015.4 |
| 20260905150058 | 74 | 11 | 1.0 | 6.0 | 0.00 | 0.48 | 0.42 | 90 | 1015.5 |
| 20260905145557 | 74 | 345 | 1.0 | 6.0 | 0.00 | 0.48 | 0.42 | 91 | 1015.5 |
| 20260905145056 | 74 | 92 | 1.0 | 5.0 | 0.00 | 0.48 | 0.42 | 91 | 1015.3 |
| 20260905144602 | 73 | 80 | 0.0 | 7.0 | 0.00 | 0.48 | 0.42 | 91 | 1015.1 |
| 20260905144057 | 73 | 315 | 2.0 | 7.0 | 0.01 | 0.48 | 0.42 | 91 | 1014.8 |
| 20260905143556 | 73 | 0 | 1.0 | 5.0 | 0.01 | 0.48 | 0.42 | 92 | 1014.3 |
| 20260905143103 | 73 | 163 | 1.0 | 4.0 | 0.01 | 0.48 | 0.42 | 92 | 1014.2 |
| 20260905142600 | 72 | 251 | 1.0 | 4.0 | 0.01 | 0.48 | 0.42 | 92 | 1014.2 |
| 20260905142057 | 72 | 0 | 1.0 | 4.0 | 0.01 | 0.48 | 0.42 | 92 | 1014.1 |
| 20260905141623 | 72 | 153 | 0.0 | 3.0 | 0.01 | 0.48 | 0.42 | 93 | 1014.2 |
| 20260905141059 | 72 | 206 | 0.0 | 3.0 | 0.01 | 0.48 | 0.42 | 93 | 1014.0 |
| 20260905140600 | 72 | 206 | 0.0 | 4.0 | 0.01 | 0.48 | 0.42 | 93 | 1014.3 |
| 20260905140058 | 72 | 0 | 1.0 | 4.0 | 0.01 | 0.48 | 0.42 | 92 | 1014.3 |
| 20260905135558 | 72 | 162 | 1.0 | 4.0 | 0.01 | 0.48 | 0.42 | 93 | 1014.3 |
| 20260905135056 | 72 | 221 | 1.0 | 4.0 | 0.01 | 0.48 | 0.42 | 93 | 1014.6 |
| 20260905134603 | 72 | 242 | 1.0 | 3.0 | 0.01 | 0.48 | 0.42 | 93 | 1015.0 |
| 20260905134056 | 72 | 0 | 0.0 | 2.0 | 0.00 | 0.47 | 0.41 | 93 | 1015.3 |
| 20260905133557 | 72 | 165 | 0.0 | 2.0 | 0.00 | 0.47 | 0.41 | 93 | 1015.1 |
| 20260905133059 | 72 | 165 | 0.0 | 1.0 | 0.00 | 0.47 | 0.41 | 93 | 1015.3 |
| 20260905132557 | 72 | 0 | 0.0 | 1.0 | 0.00 | 0.47 | 0.41 | 93 | 1015.2 |
| 20260905132057 | 71 | 0 | 0.0 | 4.0 | 0.00 | 0.47 | 0.41 | 93 | 1015.3 |
| 20260905131629 | 71 | 0 | 0.0 | 4.0 | 0.00 | 0.47 | 0.41 | 93 | 1015.2 |
| 20260905131058 | 71 | 165 | 0.0 | 3.0 | 0.00 | 0.47 | 0.41 | 93 | 1015.4 |
| 20260905130558 | 71 | 0 | 1.0 | 3.0 | 0.00 | 0.47 | 0.41 | 93 | 1015.9 |
| 20260905130101 | 71 | 224 | 1.0 | 2.0 | 0.00 | 0.47 | 0.41 | 93 | 1015.9 |
| 20260905125556 | 71 | 0 | 0.0 | 2.0 | 0.00 | 0.47 | 0.41 | 93 | 1015.9 |
| 20260905125056 | 71 | 313 | 0.0 | 2.0 | 0.01 | 0.47 | 0.41 | 93 | 1015.9 |
| 20260905124558 | 71 | 313 | 0.0 | 0.0 | 0.03 | 0.47 | 0.41 | 93 | 1015.8 |
| 20260905124056 | 71 | 0 | 0.0 | 2.0 | 0.04 | 0.47 | 0.41 | 92 | 1015.6 |
| 20260905123556 | 71 | 0 | 0.0 | 3.0 | 0.04 | 0.47 | 0.41 | 92 | 1015.8 |
| 20260905123111 | 71 | 313 | 0.0 | 3.0 | 0.08 | 0.47 | 0.41 | 92 | 1015.5 |
| 20260905122557 | 71 | 0 | 1.0 | 3.0 | 0.08 | 0.47 | 0.41 | 92 | 1015.8 |
| 20260905122057 | 71 | 5 | 0.0 | 2.0 | 0.08 | 0.47 | 0.41 | 92 | 1015.8 |